TimeEDT,TemperatureF,Dew PointF,Humidity,Sea Level PressureIn,VisibilityMPH,Wind Direction,Wind SpeedMPH,Gust SpeedMPH,PrecipitationIn,Events,Conditions,WindDirDegrees,DateUTC
12:53 AM,46.9,37.9,71,30.26,10.0,NNE,16.1,-,N/A,,Partly Cloudy,30,2011-11-02 04:53:00
1:53 AM,46.9,39.0,74,30.27,10.0,NNE,18.4,23.0,N/A,,Scattered Clouds,30,2011-11-02 05:53:00
2:29 AM,48.2,39.2,71,30.27,10.0,NNE,16.1,23.0,N/A,,Mostly Cloudy,30,2011-11-02 06:29:00
2:42 AM,46.4,37.4,71,30.27,10.0,NE,16.1,-,N/A,,Scattered Clouds,40,2011-11-02 06:42:00
2:50 AM,46.4,39.2,76,30.27,10.0,NNE,16.1,24.2,N/A,,Mostly Cloudy,30,2011-11-02 06:50:00
2:53 AM,46.9,39.0,74,30.27,10.0,NNE,16.1,24.2,N/A,,Mostly Cloudy,30,2011-11-02 06:53:00
3:02 AM,48.2,37.4,66,30.27,10.0,NNE,16.1,-,N/A,,Scattered Clouds,30,2011-11-02 07:02:00
3:53 AM,48.0,37.9,68,30.29,10.0,NNE,13.8,-,N/A,,Scattered Clouds,30,2011-11-02 07:53:00
4:53 AM,46.0,36.0,68,30.31,10.0,NNE,11.5,-,N/A,,Clear,30,2011-11-02 08:53:00
5:53 AM,46.0,36.0,68,30.32,10.0,NNE,12.7,-,N/A,,Clear,30,2011-11-02 09:53:00
6:53 AM,46.0,37.0,71,30.33,10.0,NNE,15.0,-,N/A,,Partly Cloudy,30,2011-11-02 10:53:00
7:53 AM,46.9,37.9,71,30.34,10.0,NNE,15.0,-,N/A,,Clear,30,2011-11-02 11:53:00
8:53 AM,50.0,37.0,61,30.35,10.0,NNE,17.3,-,N/A,,Clear,30,2011-11-02 12:53:00
9:53 AM,51.1,37.9,61,30.35,10.0,North,17.3,23.0,N/A,,Clear,10,2011-11-02 13:53:00
10:53 AM,52.0,37.9,59,30.35,10.0,NNE,19.6,25.3,N/A,,Clear,20,2011-11-02 14:53:00
11:53 AM,53.1,39.0,59,30.35,10.0,NNE,18.4,23.0,N/A,,Clear,20,2011-11-02 15:53:00
12:53 PM,53.1,37.9,57,30.33,10.0,North,18.4,25.3,N/A,,Clear,10,2011-11-02 16:53:00
1:53 PM,53.1,39.0,59,30.31,10.0,NNE,16.1,23.0,N/A,,Clear,20,2011-11-02 17:53:00
2:53 PM,53.1,39.0,59,30.30,10.0,NE,13.8,-,N/A,,Clear,40,2011-11-02 18:53:00
3:53 PM,51.1,39.9,66,30.31,10.0,NNE,12.7,-,N/A,,Clear,20,2011-11-02 19:53:00
4:53 PM,50.0,39.9,68,30.30,10.0,NE,5.8,-,N/A,,Clear,40,2011-11-02 20:53:00
5:53 PM,44.1,37.9,79,30.30,10.0,NNE,3.5,-,N/A,,Clear,20,2011-11-02 21:53:00
6:53 PM,43.0,37.9,82,30.30,10.0,NNE,3.5,-,N/A,,Clear,30,2011-11-02 22:53:00
7:53 PM,42.1,37.9,85,30.30,10.0,NNE,3.5,-,N/A,,Clear,30,2011-11-02 23:53:00
8:53 PM,39.9,37.0,89,30.29,10.0,North,3.5,-,N/A,,Clear,10,2011-11-03 00:53:00
9:53 PM,41.0,37.4,87,30.29,10.0,North,3.5,-,N/A,,Clear,10,2011-11-03 01:53:00
10:53 PM,39.0,36.0,89,30.27,10.0,Calm,Calm,-,N/A,,Clear,0,2011-11-03 02:53:00
11:53 PM,36.0,35.1,97,30.26,10.0,Calm,Calm,-,N/A,,Clear,0,2011-11-03 03:53:00